Погода в Рязани

Погода в Рязани : погода сейчас, прогноз погоды и архив. Всё, что Вы хотите узнать о погоде в Рязани!

Хотите узнать прогноз погоды в Рязани? Тогда Вам сюда: Погода в Рязани

Поиск расширенной информации на нашем сайте:

Полезная информация:

Другие новости

Новости СМИ2

Главная страница сайта

Новости сайта

03.07.2017

Напоминаем, что на нашем специализированном сайте Метеоцентр.Азия вы можете получить высокодетализированные автоматические прогнозы погоды по пунктам России, СНГ и мира в авиационном формате (включающие направление и скорость ветра, видимость, явления погоды, количество и форму облачности, нижнюю и верхнюю границу облачности).

Рекомендуем:

Погода в Рязани - сегодня

Время (UTC), дата Ветер
(°,м/с) 
Видим.   Явления Облачность Т
(°С)
Тd
(°С)
f(%) Тe
(°С)
Pmin
(гПа)
dP
(гПа)
Po
(мм)
O2
(г/м3)
Тmin Tmax R s Состояние
почвы
09 15.09.19 280 (З) 20000 м    8/8 600 м 
[Cu med, cong]
+14 +5.4 56 +14  1016  -0.6  748  286           
12 15.09.19 290 (З) 20000 м  {ливн. осадки}  8/4 600 м средняя 
[Cu med, cong|Ac trans]
+14 +1.5 43 +14  1014.7  -1.2  747  286           
15 15.09.19 270 (З) 20000 м    9/0 средняя 
[As trans]
+12.8 -0 41 +14  1013.3  -1.5  746  287    +15.4     
18 15.09.19 200 (Ю) 20000 м    10/3 600 м средняя 
[Sc|As trans]
+11.7 +1.3 49 +12  1011  -2.3  744  287           
21 15.09.19 220 (ЮЗ) 10 км  слаб. ливневой дождь  10/10 600 м 
[Sc]
+9.1 +8.1 93 +9  1008.9  -2.2  743  288           
00 16.09.19 220 (ЮЗ) 4{10}  10 км  слаб. ливневой дождь  10/0 средняя 
[As trans]
+9.7 +8.3 91 +9  1005.8  -3  740  287           
03 16.09.19 210 (ЮЗ) 4{10}  10 км  слаб. ливневой дождь  10/5 600 м средняя 
[Sc|As trans]
+9.7 +8.3 91 +9  1005.8  -2.5  738  286  +9      влажная 
06 16.09.19 220 (ЮЗ) 4{10}  4000 м  слаб. дождь{ливн. осадки}  10/10 300 м 
[Ns]
+9.9 +9.3 96 +10  1001.2  -2  737  285           
09 16.09.19 230 (ЮЗ) 4{10}  10 км  {дождь}  10/10 300 м 
[Sc]
+11.5 +10.1 91 +13  1000.1  -1  736  283           
12 16.09.19 260 (З) 4{14}  20000 м  в посл. час ливневой дождь  6/4 300 м кучево-дожд., средняя 
[Cb cap|Ac trans]
+14.6 +9.1 70 +14  999.2  -0.6  736  280           
15 16.09.19 250 (З) 2{12}  20000 м    8/8 600 м 
[Sc diur, vesp]
+14.4 +5.9 57 +15  999.8  0.5  736  281    +16.1     
18 16.09.19 230 (ЮЗ) 20000 м    ясно 
+11.8 +6.5 70 +12  1000.5  0.5  736  283           
21 16.09.19 230 (ЮЗ) 2{10}  20000 м    ясно 
+10.1 +6.9 80 +10  1000.1  -0.5  736  285           
00 17.09.19 240 (ЮЗ) 20000 м    9/0 средняя 
[Ac trans]
+9.7 +7.3 85 +10  999.3  -0.8  735  285           
03 17.09.19 220 (ЮЗ) 20000 м    10/0 средняя 
[Ac trans]
+8.8 +7.3 90 +9  999.2  -0.1  735  286  +8.8        влажная 
06 17.09.19 240 (ЮЗ) 3{10}  20000 м    10/10 600 м 
[Sc diur, vesp]
+10.7 +8 83 +10  999.2  0.1  735  284  +8.7         
09 17.09.19 270 (З) 3{11}  20000 м    6/6 600 м 
[Sc diur, vesp]
+13.5 +5.7 59 +14  998.6  -0.4  735  281           
12 17.09.19 270 (З) 4-10{12}  20000 м  {ливн. осадки, снег}  5/5 600 м кучево-дожд. 
[Cb calv]
+15 +1.9 41 +15  998.5  735  280           
15 17.09.19 260 (З) 3{14}  20000 м    6/1 600 м средняя 
[Sc diur, vesp|Ac trans]
+12.2 +4.1 58 +12  999.5  0.8  736  283    +15  0.3     
18 17.09.19 230 (ЮЗ) 20000 м    5/4 600 м средняя 
[Sc diur, vesp|Ac trans]
+8.9 +6.4 84 +10  1000.6  0.8  736  286           
21 17.09.19 240 (ЮЗ) 20000 м    6/0 средняя 
[Ac lent]
+6.7 +5.2 90 +8  1000.7  736  289           
00 18.09.19 250 (З) 20000 м    1/0 верхняя 
[Ci fib]
+5.7 +4.4 91 +7  1000.7  736  290           
03 18.09.19 190 (Ю) 20000 м    10/10 600 м 
[Sc diur, vesp]
+6.2 +5.1 93 +6  1000.3  -0.3  736  289  +5.1        влажная 
06 18.09.19 200 (Ю) 20000 м    10/0 средняя 
[Ac trans]
+8.5 +6.1 85 +9  1000.2  736  287           
09 18.09.19 210 (ЮЗ) 20000 м    10/1 600 м средняя 
[Sc|Ac trans]
+12.7 +5.2 60 +13  999.3  -0.6  736  282           
Время (UTC), дата Ветер
(°,м/с) 
Видим.   Явления Облачность Т
(°С)
Тd
(°С)
f(%) Тe
(°С)
Pmin
(гПа)
dP
(гПа)
Po
(мм)
O2
(г/м3)
Тmin Tmax R s Состояние
почвы

Для получения пояснительной информации подведите курсор к названию столбца.

ПОГОДА в Рязани - архив

Всё, что Вы хотите узнать о погоде в Рязани - удобно и подробно!

Выберите нужную дату (начиная с 1 января 2018* года) и нажмите кнопку "Найти".
Будут отображены архивные сводки погоды по пункту Рязань, начиная с указанной даты.


Отображать данные в формате CSV (для использования в таблицах Excel)


Внимание! Наш архив погоды предназначен исключительно для личного некоммерческого использования в познавательных целях. Если Вам необходимы официальные справки о состоянии погоды (для производственных, юридических, коммерческих и т.п. целей), обращайтесь в органы Росгидромета.

*Примечание: данная дата относится к архиву по метеостанциям СССР (Россия, СНГ, Балтия).
Архив по метеостанциям Зарубежной Европы и Азии (кроме Китая) хранится 10 дней, по другим регионам земного шара (Китай, Африка, Америка, Австралия, Океания) - 1 день.

Рязань - район местоположения метеостанции


Название, широта, долгота, высота метеостанции:
Рязань 54.6°ш. 39.7°д. 158 м над ур. моря [Российская Федерация]

Дополнительная информация

В oтличие oт бoльшинства пoгoдных сайтoв мы публикуем пoдрoбную метеoинфoрмацию в детальнoм прoфессиoнальнoм фoрмате.

Характеристики температуры и влажнoсти вoздуха измеряются на высoте 2 м в тени вдали oт зданий и деревьев.
Скoрoсть ветра измеряется на высoте 10 м (на урoвне рoста челoвека скoрoсть ветра ниже в 1.5-2 раза). Если метеoстанция нахoдится в гoрoде или в лесу, тo скoрoсть ветра занижена на 2-4 м/с пo сравнению с oткрытым местoм. Скoрoсть ветра над акватoриями крупных рек и oзёр, а также на вершинах хoлмoв на 2-5 м/с выше, чем в oбычных услoвиях.
Атмoсфернoе давление в разных тoчках местнoсти мoжет значительнo oтличаться oт давления на метеoстанции, в зависимoсти oт услoвий рельефа (при пoдъёме на 10 м давление пoнижается примернo на 1 мм рт.ст.).